DW8661 Weather Reports


time (UTC)temp
C
wind
direction
speed
KPH
gust
KPH
rain 1hr
cm
rain 24hr
cm
rain mn
cm
humidity
%
barometer
mb
20260510210004 12 191 3.2 8.0 0.00 0.33 0.28 75 1015.8
20260510204505 12 217 4.8 14.5 0.00 0.53 0.28 75 1015.7
20260510203004 12 191 6.4 14.5 0.00 0.53 0.28 75 1015.5
20260510201501 12 173 11.3 19.3 0.00 0.53 0.28 75 1015.3
20260510200005 12 202 4.8 17.7 0.00 0.53 0.28 74 1015.1
20260510194502 12 158 9.7 17.7 0.00 0.53 0.28 73 1014.9
20260510193002 12 155 8.0 16.1 0.00 0.53 0.28 71 1014.9
20260510191504 13 253 6.4 16.1 0.00 0.53 0.28 70 1014.6
20260510190009 13 236 6.4 22.5 0.00 0.53 0.28 69 1014.4
20260510184501 13 143 6.4 22.5 0.00 0.53 0.28 68 1014.2
20260510183000 13 179 12.9 19.3 0.00 0.53 0.28 66 1014.1
20260510181501 14 253 9.7 22.5 0.00 0.53 0.28 61 1014.3
20260510180003 13 207 8.0 25.7 0.00 0.53 0.28 63 1014.1
20260510174502 14 200 12.9 25.7 0.00 0.53 0.28 62 1014.1
20260510173004 14 218 12.9 24.1 0.00 0.53 0.28 59 1014.2
20260510171502 15 221 12.9 29.0 0.00 0.53 0.28 58 1014.1
20260510170101 15 225 8.0 33.8 0.00 0.53 0.28 55 1013.9
20260510164602 15 230 19.3 27.4 0.00 0.66 0.28 57 1013.8
20260510163123 15 150 16.1 29.0 0.00 0.66 0.28 56 1013.9
20260510163002 15 251 16.1 32.2 0.00 0.66 0.28 56 1013.8
20260510161606 15 182 16.1 30.6 0.00 0.66 0.28 56 1014.1
20260510160007 14 309 16.1 30.6 0.00 0.66 0.28 58 1014.1
20260510154502 15 242 11.3 25.7 0.00 0.66 0.28 56 1014.0
20260510153001 14 124 16.1 27.4 0.00 0.66 0.28 60 1013.9
20260510151502 13 204 8.0 27.4 0.00 0.66 0.28 62 1014.2
20260510150002 13 231 16.1 30.6 0.00 0.66 0.28 61 1014.5
20260510144502 13 239 8.0 27.4 0.00 0.69 0.28 72 1014.6
20260510143002 12 124 11.3 24.1 0.00 0.69 0.28 72 1014.7
20260510141502 12 245 9.7 20.9 0.00 0.69 0.28 73 1014.7
20260510140002 12 230 8.0 20.9 0.00 0.69 0.28 73 1014.7
20260510134613 12 49 9.7 19.3 0.00 0.69 0.28 76 1014.7
20260510133059 12 178 6.4 17.7 0.00 0.69 0.28 76 1014.6
20260510131601 12 244 6.4 19.3 0.00 0.69 0.28 75 1014.4
20260510124601 12 262 11.3 20.9 0.03 0.89 0.28 77 1014.3
20260510123101 12 228 4.8 22.5 0.05 0.89 0.28 81 1014.7
20260510121600 11 155 12.9 22.5 0.05 0.89 0.28 81 1014.7
20260510120100 11 151 8.0 16.1 0.05 0.89 0.25 84 1014.6
20260510114600 10 214 8.0 19.3 0.05 0.97 0.25 86 1014.9
20260510113123 10 224 6.4 22.5 0.05 0.94 0.23 87 1015.0
20260510111601 11 193 8.0 25.7 0.15 0.91 0.23 85 1015.1
20260510110003 11 227 3.2 14.5 0.15 0.89 0.20 86 1014.7
20260510104603 10 183 4.8 17.7 0.15 1.07 0.20 86 1014.7
20260510103104 11 207 3.2 27.4 0.13 1.04 0.18 84 1014.7
20260510103001 11 216 6.4 27.4 0.13 1.04 0.18 83 1014.6
20260510101601 13 208 11.3 22.5 0.00 0.91 0.05 77 1013.9
20260510100100 13 288 11.3 32.2 0.00 0.91 0.05 76 1013.7
20260510100002 13 152 14.5 32.2 0.00 0.91 0.05 75 1013.6
20260510094502 13 172 16.1 35.4 0.00 0.91 0.05 76 1013.8
20260510093109 13 140 12.9 30.6 0.00 0.91 0.05 78 1013.9
20260510091502 13 195 9.7 25.7 0.00 0.91 0.05 80 1014.1
20260510090100 12 342 11.3 24.1 0.00 0.91 0.05 82 1014.2
20260510090005 12 200 11.3 24.1 0.00 0.91 0.05 82 1014.2
20260510084603 12 264 11.3 22.5 0.00 0.91 0.05 84 1014.4
20260510084501 12 146 12.9 22.5 0.00 0.91 0.05 84 1014.5
20260510083001 11 194 8.0 22.5 0.00 0.91 0.05 86 1014.5
20260510081625 11 135 9.7 17.7 0.00 0.91 0.05 86 1014.7
20260510081505 11 148 8.0 17.7 0.00 0.91 0.05 85 1014.6
20260510080001 11 136 9.7 16.1 0.00 0.91 0.05 86 1014.4
20260510074501 11 194 9.7 17.7 0.03 0.91 0.05 86 1014.8
20260510073106 11 139 4.8 12.9 0.03 0.91 0.05 87 1014.7
20260510071501 11 215 3.2 11.3 0.03 0.91 0.05 87 1014.7
20260510070100 11 160 6.4 19.3 0.03 0.91 0.05 86 1014.6
20260510070002 11 141 8.0 19.3 0.03 0.91 0.05 86 1014.6
20260510064603 11 166 8.0 17.7 0.00 0.89 0.05 85 1014.5
20260510063101 11 134 4.8 11.3 0.00 0.89 0.05 86 1014.4
20260510061600 10 143 4.8 17.7 0.00 0.89 0.05 87 1014.3
20260510061503 10 181 6.4 17.7 0.00 0.89 0.05 87 1014.3
20260510060001 10 170 6.4 12.9 0.00 0.89 0.05 89 1014.3
20260510054601 10 205 6.4 12.9 0.00 0.89 0.05 88 1014.3
20260510053124 10 150 6.4 14.5 0.00 0.89 0.05 89 1014.3
20260510051503 10 147 9.7 16.1 0.00 0.89 0.05 89 1014.3
20260510050112 10 124 3.2 9.7 0.00 0.89 0.05 90 1014.2
20260510044607 10 177 3.2 9.7 0.00 0.89 0.05 90 1014.2
20260510043101 10 129 3.2 6.4 0.00 0.89 0.05 90 1014.2
20260510041604 10 184 0.0 9.7 0.00 0.89 0.05 90 1014.3
20260510040058 10 227 3.2 8.0 0.00 0.89 0.05 89 1014.1
20260510040002 10 201 3.2 9.7 0.00 0.89 0.05 89 1014.2
20260510034601 10 238 4.8 9.7 0.00 0.89 0.05 90 1014.3
20260510033113 10 203 3.2 8.0 0.00 0.89 0.05 90 1014.3
20260510031559 10 196 3.2 9.7 0.00 0.89 0.05 90 1014.4
20260510030112 10 181 3.2 9.7 0.00 0.89 0.05 90 1014.7
20260510030002 10 178 3.2 9.7 0.00 0.89 0.05 90 1014.6
20260510024559 10 120 1.6 4.8 0.00 0.89 0.05 90 1014.7
20260510023100 10 226 1.6 4.8 0.00 0.89 0.05 91 1014.9
20260510021600 10 239 4.8 8.0 0.00 0.89 0.05 90 1014.8
20260510020001 10 195 3.2 8.0 0.00 0.89 0.05 91 1014.8
20260510014603 10 236 1.6 8.0 0.00 0.89 0.05 91 1014.8
20260510013059 10 207 1.6 6.4 0.00 0.89 0.05 91 1014.8
20260510011600 10 116 3.2 11.3 0.00 0.89 0.05 90 1014.8
20260510010100 10 236 3.2 9.7 0.00 0.89 0.05 90 1014.8
20260510010001 10 153 3.2 9.7 0.00 0.89 0.05 90 1015.0
20260510004600 10 207 6.4 12.9 0.00 0.89 0.05 91 1014.8
20260510003105 10 227 8.0 12.9 0.00 0.89 0.05 90 1014.8
20260510001600 10 200 4.8 12.9 0.00 0.89 0.05 90 1014.9
20260510000103 10 260 6.4 12.9 0.00 0.89 0.05 91 1014.9
20260510000002 10 192 8.0 12.9 0.00 0.89 0.05 90 1014.9
20260509234601 10 224 4.8 14.5 0.05 0.89 0.05 91 1015.0
20260509233105 10 197 3.2 11.3 0.05 0.89 0.05 90 1015.2
20260509231600 10 155 0.0 12.9 0.05 0.89 0.05 90 1015.1
20260509230100 10 144 6.4 17.7 0.05 0.89 0.05 90 1015.0
20260509230002 10 230 4.8 17.7 0.05 0.89 0.05 90 1015.0
20260509224501 10 228 8.0 14.5 0.00 0.86 0.00 89 1014.9
20260509223002 10 219 1.6 8.0 0.00 0.86 0.00 89 1014.7
20260509221501 10 246 4.8 11.3 0.00 0.86 0.00 88 1014.8
20260509220001 10 170 4.8 11.3 0.05 0.86 0.86 89 1014.2
20260509214501 10 198 1.6 6.4 0.13 0.86 0.86 89 1014.2
20260509213002 10 228 0.0 3.2 0.20 0.86 0.86 90 1014.1
20260509211501 10 255 0.0 4.8 0.25 0.86 0.86 89 1014.2